STAR ONE D1 (41904 NORAD) Tracking and Keplerian Element Data

This shows tracking and keplerian element data for the satellite.

Feedback or suggestion? Click here.




ElementValue
Catalog41904
NameSTAR ONE D1
Epoch Orbit1740
Epoch Day261.85144462
Epoch Year2021
RAAN109.7525
Inclination0.0282
Eccentricity0.0002038
Argument of Perigee43.8541
Mean Anonmoly66.8869
Mean Motion1.0027421
Decay Rate-2.35E-06
L11 41904U 16082B 21261.85144462 -.00000235 00000-0 00000-0 0 9992
L22 41904 0.0282 109.7525 0002038 43.8541 66.8869 1.00274210 17401

Live tracking and technical data element details for STAR ONE D1 (NORAD 41904). STAR ONE D1 can be tracked NOW for your location showing map with azimuth and elevation plus other details from your city location.

Track the satellite on the map from your city or location and see movement details for azimuth, elevation, latitude, longitude, range, height, and movement on the map or in text.







IsCatalogInMostPopularTable: catalog: 41904, numindb: 595
Update: records affected: 1



GetName: 41904 STAR ONE D1

Hit Count: updated at: Sun, 26 Sep 2021 01:21:12 GMT